ATLAS 5 CENTAUR R/B, 40375

Orbit data source: Space-Track

ATLAS 5 CENTAUR R/B, 40375 is space debris in HEO originally from a launch on Wed, 21 Jan 2015 UTC launched from the Air Force Eastern Test Range (AFETR). Debris objects in space refer to the collection of defunct objects orbiting the Earth. Examples of debris include non-operational satellites, rocket bodies, and fragments generated from explosions, collisions, or faulty payload assembly.

Loading next visibility...
Identifier
40375, 2015-002B
Orbit
HEO
Last TLE update
18 hours ago
Origin
Manufacturer
LMSS Denver
Mission
Spacecraft
Bus & Motor
CENTAUR SEC, RL10C-1
Mass
~2,020 kg wet, 2,020 kg dry
Launch date (UTC)
2015-01-21 (10 years ago)
Launch vehicle
Unknown
Launch site
Air Force Eastern Test Range (AFETR)
Object type
Payload
Rocket body
Debris
Shape & HBR
Cyl + 1 Nozzle, 11.7 m
Radar Cross Section
32.260 m², Large (>1 m²)

Expand to show TLE details & history

TLE from 18 hours ago
0 ATLAS 5 CENTAUR R/B
1 40375U 15002B   25191.33826635 -.00000101  00000-0  00000-0 0  9994
2 40375  19.2211 351.4599 6073756  13.1178 357.3661  2.08932035 79917
Epoch: 2025-07-10T08:07Z
TLE epoch observation values (Epoch: 2025-07-10T08:07:06.212Z)
Latitude
0.00029°
Longitude
-58.81442°
Altitude
3,902.117 km
Speed
7.882 km/s
True Right ascension
23h 25m 52s
True Declination
0° 00' 01"
Sunlit
Object was in daylight at epoch
Visualization orbit readout
Latitude
-6.97061°
Longitude
141.54992°
Altitude
34,477.937 km
Speed
2.023 km/s
Apparent Right ascension
12h 33m 30s
Apparent Declination
-13° 59' 04"
Sunlit
Object is in daylight
Visualization observer readout
Local Sidereal Time
14:33:14
Azimuth
213.741° SW
Elevation
29.334°
Doppler factor
1
Orbital elements
Apogee altitude
35,171.186 km
Perigee altitude
3,770.877 km
Semi-major axis
25,849.169 km
Eccentricity
0.60738
Inclination
19.2211°
RAAN
351.4599°
Arg. of periapsis
13.1178°
True anomaly
Unknown
Mean anomaly
357.3661°
Eccentric anomaly
Unknown
Mean motion
0.52224 °/min
Orbital period
689.33 mins
BSTAR
0
Loading maneuver chart data...
Loading SW <> Apogee altitude chart data...
Loading historical data...
Loading historical data...
Loading historical data...
Loading historical data...
Loading historical data...
Loading historical data...
Loading historical data...
Other satellites on launch #2 in the year 2015 (2015-01-21 UTC)

ATLAS 5 CENTAUR R/B Visibility forecast

Observer location: undefined°, undefined°

Span
Click to sort rows by Start time (UTC) header in descending order
Start Az.
Max El. time (UTC)
Max El. Az.
Max El.
End time (UTC)
End Az.
228 mins2025-07-11 02:16:42.500Z213.731° SW2025-07-11 02:16:42.500Z213.731° SW26.092°2025-07-11 06:04:42.500Z197.692° SSW
432 mins2025-07-11 19:04:42.500Z257.36° W2025-07-11 19:57:42.500Z190.031° SSW39.451°2025-07-12 02:16:42.500Z201.08° SSW
|